,,,PA_Meas_PMT16A,,PR_Meas_QMR101_102,,RH_Meas_QMH101,,SR_Meas_QMS101,,TA_Meas_QMH101,,GenWind,,GenWind,
date,time,status,PA,status,PR,status,RH,status,SR,status,TA,status,DirAvg,status,SpdAvg,
2008-03-22, 00:00:04,VALID,1002.73,VALID,0,VALID,97.3598,VALID,0.100563,VALID,22.7499,VALID,34,VALID,0,
2008-03-22, 00:01:04,VALID,1002.72,VALID,0,VALID,97.3598,VALID,0,VALID,22.7694,VALID,34,VALID,0,
2008-03-22, 00:02:04,VALID,1002.72,VALID,0,VALID,97.3521,VALID,0,VALID,22.7499,VALID,34,VALID,0,
2008-03-22, 00:03:04,VALID,1002.75,VALID,0,VALID,97.3598,VALID,0.100563,VALID,22.7499,VALID,34,VALID,0,
2008-03-22, 00:04:04,VALID,1002.77,VALID,0,VALID,97.3598,VALID,0,VALID,22.7499,VALID,34,VALID,0,
2008-03-22, 00:05:04,VALID,1002.75,VALID,0,VALID,97.3598,VALID,0,VALID,22.7694,VALID,34,VALID,0,
2008-03-22, 00:06:04,VALID,1002.79,VALID,0,VALID,97.3598,VALID,0,VALID,22.7694,VALID,34,VALID,0,
2008-03-22, 00:07:04,VALID,1002.76,VALID,0,VALID,97.3674,VALID,0,VALID,22.7694,VALID,34,VALID,0,
2008-03-22, 00:08:04,VALID,1002.78,VALID,0,VALID,97.3445,VALID,0,VALID,22.7694,VALID,34,VALID,0,
2008-03-22, 00:09:04,VALID,1002.78,VALID,0,VALID,97.3521,VALID,0,VALID,22.81,VALID,34,VALID,0,
2008-03-22, 00:10:04,VALID,1002.77,VALID,0,VALID,97.3674,VALID,0,VALID,22.8083,VALID,34,VALID,0,
2008-03-22, 00:11:04,VALID,1002.79,VALID,0,VALID,97.3445,VALID,0,VALID,22.81,VALID,34,VALID,0,
2008-03-22, 00:12:04,VALID,1002.79,VALID,0,VALID,97.3293,VALID,0,VALID,22.7906,VALID,34,VALID,0,
2008-03-22, 00:13:04,VALID,1002.8,VALID,0,VALID,97.3521,VALID,0,VALID,22.7711,VALID,34,VALID,0,
2008-03-22, 00:14:04,VALID,1002.8,VALID,0,VALID,97.3521,VALID,0,VALID,22.7305,VALID,34,VALID,0,
2008-03-22, 00:15:04,VALID,1002.77,VALID,0,VALID,97.3369,VALID,0.100563,VALID,22.711,VALID,34,VALID,0,
2008-03-22, 00:16:04,VALID,1002.75,VALID,0,VALID,97.3674,VALID,0.100563,VALID,22.7516,VALID,34,VALID,0,
2008-03-22, 00:17:04,VALID,1002.74,VALID,0,VALID,97.3674,VALID,0.100563,VALID,22.7711,VALID,34,VALID,0,
2008-03-22, 00:18:04,VALID,1002.73,VALID,0,VALID,97.3445,VALID,0,VALID,22.7499,VALID,34,VALID,0,
2008-03-22, 00:19:04,VALID,1002.72,VALID,0,VALID,97.3521,VALID,0,VALID,22.7711,VALID,34,VALID,0,
2008-03-22, 00:20:04,VALID,1002.72,VALID,0,VALID,97.3674,VALID,0,VALID,22.7499,VALID,34,VALID,0,
2008-03-22, 00:21:04,VALID,1002.72,VALID,0,VALID,97.375,VALID,0,VALID,22.7906,VALID,34,VALID,0,
2008-03-22, 00:22:04,VALID,1002.69,VALID,0,VALID,97.375,VALID,0,VALID,22.7694,VALID,34,VALID,0,
2008-03-22, 00:23:04,VALID,1002.68,VALID,0,VALID,97.3674,VALID,0,VALID,22.7694,VALID,34,VALID,0,
2008-03-22, 00:24:04,VALID,1002.66,VALID,0,VALID,97.375,VALID,0,VALID,22.7906,VALID,34,VALID,0,
2008-03-22, 00:25:04,VALID,1002.68,VALID,0,VALID,97.3598,VALID,0,VALID,22.7499,VALID,34,VALID,0,
2008-03-22, 00:26:04,VALID,1002.65,VALID,0,VALID,97.3674,VALID,0,VALID,22.7499,VALID,34,VALID,0,
2008-03-22, 00:27:04,VALID,1002.64,VALID,0,VALID,97.3293,VALID,0,VALID,22.711,VALID,34,VALID,0,
2008-03-22, 00:28:04,VALID,1002.65,VALID,0,VALID,97.375,VALID,0.100563,VALID,22.7322,VALID,34,VALID,0,
2008-03-22, 00:29:04,VALID,1002.66,VALID,0,VALID,97.3827,VALID,0,VALID,22.7322,VALID,34,VALID,0,
2008-03-22, 00:30:04,VALID,1002.66,VALID,0,VALID,97.3903,VALID,0.100563,VALID,22.7516,VALID,34,VALID,0,
2008-03-22, 00:31:04,VALID,1002.67,VALID,0,VALID,97.375,VALID,0.100563,VALID,22.7711,VALID,34,VALID,0,
2008-03-22, 00:32:04,VALID,1002.69,VALID,0,VALID,97.3827,VALID,0.100563,VALID,22.7694,VALID,34,VALID,0,
2008-03-22, 00:33:04,VALID,1002.66,VALID,0,VALID,97.3674,VALID,0,VALID,22.7711,VALID,34,VALID,0,
2008-03-22, 00:34:04,VALID,1002.71,VALID,0,VALID,97.375,VALID,0,VALID,22.7711,VALID,34,VALID,0,
2008-03-22, 00:35:04,VALID,1002.72,VALID,0,VALID,97.3979,VALID,0,VALID,22.7888,VALID,34,VALID,0,
2008-03-22, 00:36:04,VALID,1002.72,VALID,0,VALID,97.3827,VALID,0.100563,VALID,22.8083,VALID,34,VALID,0,
2008-03-22, 00:37:04,VALID,1002.72,VALID,0,VALID,97.3445,VALID,0,VALID,22.8083,VALID,34,VALID,0,
2008-03-22, 00:38:04,VALID,1002.68,VALID,0,VALID,97.3827,VALID,0,VALID,22.7711,VALID,34,VALID,0,
2008-03-22, 00:39:04,VALID,1002.69,VALID,0,VALID,97.3674,VALID,0,VALID,22.7906,VALID,34,VALID,0,
2008-03-22, 00:40:04,VALID,1002.68,VALID,0,VALID,97.3674,VALID,0,VALID,22.7923,VALID,34,VALID,0,
2008-03-22, 00:41:04,VALID,1002.69,VALID,0,VALID,97.3674,VALID,0,VALID,22.7711,VALID,34,VALID,0,
2008-03-22, 00:42:04,VALID,1002.7,VALID,0,VALID,97.3674,VALID,0,VALID,22.7516,VALID,34,VALID,0,
2008-03-22, 00:43:04,VALID,1002.7,VALID,0,VALID,97.375,VALID,0,VALID,22.7728,VALID,34,VALID,0,
2008-03-22, 00:44:04,VALID,1002.72,VALID,0,VALID,97.3979,VALID,0,VALID,22.7728,VALID,34,VALID,0,
2008-03-22, 00:45:04,VALID,1002.7,VALID,0,VALID,97.3827,VALID,0,VALID,22.7711,VALID,34,VALID,0,
2008-03-22, 00:46:04,VALID,1002.7,VALID,0,VALID,97.3598,VALID,0,VALID,22.7728,VALID,34,VALID,0,
2008-03-22, 00:47:04,VALID,1002.69,VALID,0,VALID,97.3979,VALID,0,VALID,22.7516,VALID,34,VALID,0,
2008-03-22, 00:48:04,VALID,1002.7,VALID,0,VALID,97.3827,VALID,0,VALID,22.7906,VALID,34,VALID,0,
2008-03-22, 00:49:04,VALID,1002.7,VALID,0,VALID,97.3827,VALID,0,VALID,22.81,VALID,34,VALID,0,
2008-03-22, 00:50:04,VALID,1002.69,VALID,0,VALID,97.3674,VALID,0,VALID,22.7694,VALID,34,VALID,0,
2008-03-22, 00:51:04,VALID,1002.67,VALID,0,VALID,97.3827,VALID,0,VALID,22.7906,VALID,34,VALID,0,
2008-03-22, 00:52:04,VALID,1002.68,VALID,0,VALID,97.3903,VALID,0,VALID,22.8118,VALID,34,VALID,0,
2008-03-22, 00:53:04,VALID,1002.66,VALID,0,VALID,97.375,VALID,0,VALID,22.7888,VALID,34,VALID,0,
2008-03-22, 00:54:04,VALID,1002.66,VALID,0,VALID,97.3674,VALID,0.100563,VALID,22.8312,VALID,34,VALID,0,
2008-03-22, 00:55:04,VALID,1002.71,VALID,0,VALID,97.3674,VALID,0.100563,VALID,22.8295,VALID,34,VALID,0,
2008-03-22, 00:56:04,VALID,1002.69,VALID,0,VALID,97.375,VALID,0.100563,VALID,22.81,VALID,34,VALID,0,
2008-03-22, 00:57:04,VALID,1002.68,VALID,0,VALID,97.3827,VALID,0.100563,VALID,22.8278,VALID,34,VALID,0,
2008-03-22, 00:58:04,VALID,1002.67,VALID,0,VALID,97.3903,VALID,0.100563,VALID,22.8684,VALID,34,VALID,0,
2008-03-22, 00:59:04,VALID,1002.68,VALID,0,VALID,97.375,VALID,0.100563,VALID,22.8861,VALID,34,VALID,0,
2008-03-22, 01:00:04,VALID,1002.67,VALID,0,VALID,97.375,VALID,0.100563,VALID,22.9268,VALID,34,VALID,0,
2008-03-22, 01:01:04,VALID,1002.63,VALID,0,VALID,97.3674,VALID,0.100563,VALID,22.9251,VALID,34,VALID,0,
2008-03-22, 01:02:04,VALID,1002.62,VALID,0,VALID,97.3674,VALID,0.100563,VALID,22.9463,VALID,34,VALID,0,
2008-03-22, 01:03:04,VALID,1002.6,VALID,0,VALID,97.375,VALID,0.100563,VALID,22.9445,VALID,34,VALID,0,
2008-03-22, 01:04:04,VALID,1002.59,VALID,0,VALID,97.3827,VALID,0,VALID,22.9463,VALID,34,VALID,0,
2008-03-22, 01:05:04,VALID,1002.59,VALID,0,VALID,97.375,VALID,0,VALID,22.9657,VALID,34,VALID,0,
2008-03-22, 01:06:04,VALID,1002.6,VALID,0,VALID,97.3674,VALID,0.100563,VALID,22.9463,VALID,34,VALID,0,
2008-03-22, 01:07:04,VALID,1002.59,VALID,0,VALID,97.375,VALID,0,VALID,22.9657,VALID,34,VALID,0,
2008-03-22, 01:08:04,VALID,1002.58,VALID,0,VALID,97.3445,VALID,0,VALID,22.9073,VALID,34,VALID,0,
2008-03-22, 01:09:04,VALID,1002.56,VALID,0,VALID,97.3369,VALID,0,VALID,22.8684,VALID,34,VALID,0,
2008-03-22, 01:10:04,VALID,1002.56,VALID,0,VALID,97.3521,VALID,0,VALID,22.8295,VALID,34,VALID,0,
2008-03-22, 01:11:04,VALID,1002.57,VALID,0,VALID,97.3521,VALID,0,VALID,22.8701,VALID,34,VALID,0,
2008-03-22, 01:12:04,VALID,1002.54,VALID,0,VALID,97.3674,VALID,0,VALID,22.8701,VALID,34,VALID,0,
2008-03-22, 01:13:04,VALID,1002.53,VALID,0,VALID,97.3598,VALID,0,VALID,22.8489,VALID,34,VALID,0,
2008-03-22, 01:14:04,VALID,1002.53,VALID,0,VALID,97.3674,VALID,0,VALID,22.8295,VALID,34,VALID,0,
2008-03-22, 01:15:04,VALID,1002.51,VALID,0,VALID,97.3674,VALID,0,VALID,22.8295,VALID,34,VALID,0,
2008-03-22, 01:16:04,VALID,1002.52,VALID,0,VALID,97.3521,VALID,0,VALID,22.8295,VALID,34,VALID,0,
2008-03-22, 01:17:04,VALID,1002.5,VALID,0,VALID,97.375,VALID,0,VALID,22.8701,VALID,34,VALID,0,
2008-03-22, 01:18:04,VALID,1002.47,VALID,0,VALID,97.3903,VALID,0,VALID,22.8684,VALID,34,VALID,0,
2008-03-22, 01:19:04,VALID,1002.49,VALID,0,VALID,97.3827,VALID,0,VALID,22.8684,VALID,34,VALID,0,
2008-03-22, 01:20:04,VALID,1002.46,VALID,0,VALID,97.3598,VALID,0,VALID,22.8684,VALID,34,VALID,0,
2008-03-22, 01:21:04,VALID,1002.45,VALID,0,VALID,97.3674,VALID,0,VALID,22.8879,VALID,34,VALID,0,
2008-03-22, 01:22:04,VALID,1002.44,VALID,0,VALID,97.3598,VALID,0,VALID,22.9091,VALID,34,VALID,0,
2008-03-22, 01:23:04,VALID,1002.44,VALID,0,VALID,97.3598,VALID,0,VALID,22.9285,VALID,33,VALID,0.695313,
2008-03-22, 01:24:04,VALID,1002.41,VALID,0,VALID,97.375,VALID,0,VALID,22.9675,VALID,33,VALID,0.747266,
2008-03-22, 01:25:04,VALID,1002.43,VALID,0,VALID,97.3674,VALID,0.100563,VALID,22.9463,VALID,32,VALID,0.627344,
2008-03-22, 01:26:04,VALID,1002.4,VALID,0,VALID,97.3674,VALID,0,VALID,22.9869,VALID,34,VALID,0.747266,
2008-03-22, 01:27:04,VALID,1002.4,VALID,0,VALID,97.3598,VALID,0,VALID,22.9657,VALID,34,VALID,0.632031,
2008-03-22, 01:28:04,VALID,1002.36,VALID,0,VALID,97.3598,VALID,0,VALID,22.9463,VALID,34,VALID,0.576563,
2008-03-22, 01:29:04,VALID,1002.32,VALID,0,VALID,97.3521,VALID,0,VALID,22.9463,VALID,34,VALID,0.406641,
2008-03-22, 01:30:04,VALID,1002.32,VALID,0,VALID,97.3598,VALID,0,VALID,22.9285,VALID,34,VALID,0.346484,
2008-03-22, 01:31:04,VALID,1002.31,VALID,0,VALID,97.3521,VALID,0,VALID,22.9073,VALID,34,VALID,0.305469,
2008-03-22, 01:32:04,VALID,1002.29,VALID,0,VALID,97.375,VALID,0,VALID,22.8879,VALID,34,VALID,0.204297,
2008-03-22, 01:33:04,VALID,1002.26,VALID,0,VALID,97.3521,VALID,0,VALID,22.8896,VALID,34,VALID,0.159766,
2008-03-22, 01:34:04,VALID,1002.26,VALID,0,VALID,97.3445,VALID,0,VALID,22.8701,VALID,34,VALID,0.562891,
2008-03-22, 01:35:04,VALID,1002.24,VALID,0,VALID,97.3521,VALID,0,VALID,22.8701,VALID,34,VALID,0.426953,
2008-03-22, 01:36:04,VALID,1002.25,VALID,0,VALID,97.3674,VALID,0,VALID,22.8489,VALID,34,VALID,0.303906,
2008-03-22, 01:37:04,VALID,1002.25,VALID,0,VALID,97.3445,VALID,0,VALID,22.8295,VALID,34,VALID,0.492188,
2008-03-22, 01:38:04,VALID,1002.27,VALID,0,VALID,97.3598,VALID,0.100563,VALID,22.8083,VALID,34,VALID,0.153516,
2008-03-22, 01:39:04,VALID,1002.26,VALID,0,VALID,97.3598,VALID,0,VALID,22.81,VALID,34,VALID,0.0433594,
2008-03-22, 01:40:04,VALID,1002.27,VALID,0,VALID,97.3674,VALID,0,VALID,22.7888,VALID,34,VALID,0.0324219,
2008-03-22, 01:41:04,VALID,1002.28,VALID,0,VALID,97.3827,VALID,0,VALID,22.8083,VALID,34,VALID,0,
2008-03-22, 01:42:04,VALID,1002.28,VALID,0,VALID,97.375,VALID,0.100563,VALID,22.8278,VALID,34,VALID,0,
2008-03-22, 01:43:04,VALID,1002.25,VALID,0,VALID,97.3598,VALID,0,VALID,22.8295,VALID,34,VALID,0,
2008-03-22, 01:44:04,VALID,1002.27,VALID,0,VALID,97.3521,VALID,0,VALID,22.7888,VALID,34,VALID,0.345313,
2008-03-22, 01:45:04,VALID,1002.26,VALID,0,VALID,97.3827,VALID,0,VALID,22.81,VALID,34,VALID,0.43125,
2008-03-22, 01:46:04,VALID,1002.23,VALID,0,VALID,97.3598,VALID,0,VALID,22.81,VALID,34,VALID,0.628906,
2008-03-22, 01:47:04,VALID,1002.19,VALID,0,VALID,97.3674,VALID,0,VALID,22.7694,VALID,32,VALID,0.632422,
2008-03-22, 01:48:04,VALID,1002.17,VALID,0,VALID,97.3598,VALID,0.100563,VALID,22.7711,VALID,32,VALID,0.480078,
2008-03-22, 01:49:04,VALID,1002.14,VALID,0,VALID,97.375,VALID,0.100563,VALID,22.7499,VALID,32,VALID,0.409766,
2008-03-22, 01:50:04,VALID,1002.15,VALID,0,VALID,97.3598,VALID,0.100563,VALID,22.7516,VALID,32,VALID,0.342578,
2008-03-22, 01:51:04,VALID,1002.14,VALID,0,VALID,97.3674,VALID,0,VALID,22.7516,VALID,32,VALID,0.0917969,
2008-03-22, 01:52:04,VALID,1002.13,VALID,0,VALID,97.4132,VALID,0.100563,VALID,22.81,VALID,32,VALID,0.184766,
2008-03-22, 01:53:04,VALID,1002.12,VALID,0,VALID,97.4132,VALID,0,VALID,22.8507,VALID,32,VALID,0.116406,
2008-03-22, 01:54:04,VALID,1002.1,VALID,0,VALID,97.4132,VALID,0,VALID,22.8489,VALID,32,VALID,0.0078125,
2008-03-22, 01:55:04,VALID,1002.1,VALID,0,VALID,97.4132,VALID,0,VALID,22.8684,VALID,32,VALID,0,
2008-03-22, 01:56:04,VALID,1002.09,VALID,0,VALID,97.3903,VALID,0,VALID,22.8684,VALID,32,VALID,0.230859,
2008-03-22, 01:57:04,VALID,1002.06,VALID,0,VALID,97.3827,VALID,0,VALID,22.8489,VALID,32,VALID,0.346484,
2008-03-22, 01:58:04,VALID,1002.04,VALID,0,VALID,97.3674,VALID,0,VALID,22.8489,VALID,32,VALID,0.3125,
2008-03-22, 01:59:04,VALID,1002.02,VALID,0,VALID,97.3598,VALID,0,VALID,22.8312,VALID,32,VALID,0.352734,
2008-03-22, 02:00:04,VALID,1002.05,VALID,0,VALID,97.3674,VALID,0,VALID,22.8312,VALID,32,VALID,0.214453,
2008-03-22, 02:01:04,VALID,1002.03,VALID,0,VALID,97.3903,VALID,0,VALID,22.8312,VALID,32,VALID,0.103516,
2008-03-22, 02:02:04,VALID,1002.03,VALID,0,VALID,97.375,VALID,0,VALID,22.8507,VALID,32,VALID,0.285937,
2008-03-22, 02:03:04,VALID,1002.03,VALID,0,VALID,97.375,VALID,0,VALID,22.8701,VALID,32,VALID,0.277344,
2008-03-22, 02:04:04,VALID,1002.05,VALID,0,VALID,97.375,VALID,0,VALID,22.8701,VALID,32,VALID,0.302344,
2008-03-22, 02:05:04,VALID,1002.04,VALID,0,VALID,97.3674,VALID,0,VALID,22.8507,VALID,32,VALID,0.339063,
2008-03-22, 02:06:04,VALID,1002.05,VALID,0,VALID,97.375,VALID,0,VALID,22.8295,VALID,32,VALID,0.40625,
2008-03-22, 02:07:04,VALID,1002.05,VALID,0,VALID,97.3674,VALID,0,VALID,22.8507,VALID,31,VALID,0.476953,
2008-03-22, 02:08:04,VALID,1002.03,VALID,0,VALID,97.3903,VALID,0.100563,VALID,22.8083,VALID,27,VALID,0.430469,
2008-03-22, 02:09:04,VALID,1002,VALID,0,VALID,97.3979,VALID,0.100563,VALID,22.8295,VALID,27,VALID,0.328125,
2008-03-22, 02:10:04,VALID,1002.02,VALID,0,VALID,97.375,VALID,0.100563,VALID,22.8295,VALID,26,VALID,0.279687,
2008-03-22, 02:11:04,VALID,1002,VALID,0,VALID,97.375,VALID,0.100563,VALID,22.81,VALID,26,VALID,0.332812,
2008-03-22, 02:12:04,VALID,1002,VALID,0,VALID,97.375,VALID,0.100563,VALID,22.7888,VALID,26,VALID,0.332812,
2008-03-22, 02:13:04,VALID,1001.98,VALID,0,VALID,97.375,VALID,0,VALID,22.81,VALID,26,VALID,0.401172,
2008-03-22, 02:14:04,VALID,1001.95,VALID,0,VALID,97.3827,VALID,0.100563,VALID,22.81,VALID,26,VALID,0.473047,
2008-03-22, 02:15:04,VALID,1001.96,VALID,0,VALID,97.3903,VALID,0,VALID,22.81,VALID,21,VALID,0.483203,
2008-03-22, 02:16:04,VALID,1001.95,VALID,0,VALID,97.4208,VALID,0.100563,VALID,22.8295,VALID,14,VALID,0.491406,
2008-03-22, 02:17:04,VALID,1001.94,VALID,0,VALID,97.4132,VALID,0.100563,VALID,22.7871,VALID,14,VALID,0.352344,
2008-03-22, 02:18:04,VALID,1001.92,VALID,0,VALID,97.3903,VALID,0,VALID,22.8295,VALID,14,VALID,0.319141,
2008-03-22, 02:19:04,VALID,1001.94,VALID,0,VALID,97.375,VALID,0.100563,VALID,22.8278,VALID,14,VALID,0.313281,
2008-03-22, 02:20:04,VALID,1001.93,VALID,0,VALID,97.3827,VALID,0.100563,VALID,22.81,VALID,14,VALID,0.452734,
2008-03-22, 02:21:04,VALID,1001.88,VALID,0,VALID,97.3903,VALID,0.100563,VALID,22.7677,VALID,13,VALID,0.577344,
2008-03-22, 02:22:04,VALID,1001.85,VALID,0,VALID,97.3979,VALID,0.100563,VALID,22.81,VALID,12,VALID,0.535156,
2008-03-22, 02:23:04,VALID,1001.87,VALID,0,VALID,97.3903,VALID,0,VALID,22.7906,VALID,7,VALID,0.6875,
2008-03-22, 02:24:04,VALID,1001.84,VALID,0,VALID,97.3903,VALID,0,VALID,22.8118,VALID,4,VALID,0.480859,
2008-03-22, 02:25:04,VALID,1001.8,VALID,0,VALID,97.4055,VALID,0,VALID,22.81,VALID,5,VALID,0.297656,
2008-03-22, 02:26:04,VALID,1001.79,VALID,0,VALID,97.4132,VALID,0,VALID,22.8295,VALID,4,VALID,0.165234,
2008-03-22, 02:27:04,VALID,1001.81,VALID,0,VALID,97.4132,VALID,0,VALID,22.8507,VALID,4,VALID,0.273047,
2008-03-22, 02:28:04,VALID,1001.83,VALID,0,VALID,97.4132,VALID,0,VALID,22.8295,VALID,4,VALID,0.405078,
2008-03-22, 02:29:04,VALID,1001.8,VALID,0,VALID,97.4208,VALID,0,VALID,22.8507,VALID,4,VALID,0.421094,
2008-03-22, 02:30:04,VALID,1001.79,VALID,0,VALID,97.3903,VALID,0,VALID,22.81,VALID,4,VALID,0.435547,
2008-03-22, 02:31:04,VALID,1001.79,VALID,0,VALID,97.3903,VALID,0,VALID,22.81,VALID,4,VALID,0.523438,
2008-03-22, 02:32:04,VALID,1001.77,VALID,0,VALID,97.4132,VALID,0,VALID,22.8312,VALID,4,VALID,0.401953,
2008-03-22, 02:33:04,VALID,1001.76,VALID,0,VALID,97.4132,VALID,0,VALID,22.81,VALID,4,VALID,0.412891,
2008-03-22, 02:34:04,VALID,1001.76,VALID,0,VALID,97.4055,VALID,0,VALID,22.8118,VALID,4,VALID,0.430078,
2008-03-22, 02:35:04,VALID,1001.72,VALID,0,VALID,97.3979,VALID,0,VALID,22.7711,VALID,4,VALID,0.422656,
2008-03-22, 02:36:04,VALID,1001.74,VALID,0,VALID,97.4284,VALID,0,VALID,22.8295,VALID,4,VALID,0.423047,
2008-03-22, 02:37:04,VALID,1001.73,VALID,0,VALID,97.4513,VALID,0,VALID,22.9091,VALID,4,VALID,0.250781,
2008-03-22, 02:38:04,VALID,1001.74,VALID,0,VALID,97.4513,VALID,0,VALID,22.948,VALID,4,VALID,0.195703,
2008-03-22, 02:39:04,VALID,1001.7,VALID,0,VALID,97.4132,VALID,0,VALID,22.9869,VALID,4,VALID,0.405859,
2008-03-22, 02:40:04,VALID,1001.71,VALID,0,VALID,97.4284,VALID,0,VALID,23.0064,VALID,4,VALID,0.328906,
2008-03-22, 02:41:04,VALID,1001.73,VALID,0,VALID,97.375,VALID,0,VALID,22.9869,VALID,4,VALID,0.394141,
2008-03-22, 02:42:04,VALID,1001.69,VALID,0,VALID,97.3903,VALID,0,VALID,22.9268,VALID,4,VALID,0.423047,
2008-03-22, 02:43:04,VALID,1001.7,VALID,0,VALID,97.3827,VALID,0,VALID,22.9073,VALID,4,VALID,0.398438,
2008-03-22, 02:44:04,VALID,1001.68,VALID,0,VALID,97.3827,VALID,0,VALID,22.9285,VALID,4,VALID,0.447266,
2008-03-22, 02:45:04,VALID,1001.66,VALID,0,VALID,97.3979,VALID,0,VALID,22.9091,VALID,4,VALID,0.330078,
2008-03-22, 02:46:04,VALID,1001.67,VALID,0,VALID,97.4132,VALID,0,VALID,22.948,VALID,4,VALID,0.231641,
2008-03-22, 02:47:04,VALID,1001.65,VALID,0,VALID,97.3979,VALID,0,VALID,22.9463,VALID,4,VALID,0.236328,
2008-03-22, 02:48:04,VALID,1001.65,VALID,0,VALID,97.4132,VALID,0,VALID,22.9675,VALID,4,VALID,0.25,
2008-03-22, 02:49:04,VALID,1001.62,VALID,0,VALID,97.3903,VALID,0,VALID,22.948,VALID,4,VALID,0.230469,
2008-03-22, 02:50:04,VALID,1001.63,VALID,0,VALID,97.3903,VALID,0,VALID,22.948,VALID,4,VALID,0.219922,
2008-03-22, 02:51:04,VALID,1001.63,VALID,0,VALID,97.3827,VALID,0,VALID,22.9285,VALID,4,VALID,0.278516,
2008-03-22, 02:52:04,VALID,1001.61,VALID,0,VALID,97.375,VALID,0,VALID,22.8896,VALID,4,VALID,0.365625,
2008-03-22, 02:53:04,VALID,1001.59,VALID,0,VALID,97.3979,VALID,0,VALID,22.9073,VALID,4,VALID,0.407031,
2008-03-22, 02:54:04,VALID,1001.61,VALID,0,VALID,97.3827,VALID,0,VALID,22.8667,VALID,4,VALID,0.445313,
2008-03-22, 02:55:04,VALID,1001.61,VALID,0,VALID,97.3903,VALID,0,VALID,22.8684,VALID,4,VALID,0.383984,
2008-03-22, 02:56:04,VALID,1001.6,VALID,0,VALID,97.3827,VALID,0,VALID,22.8489,VALID,4,VALID,0.370703,
2008-03-22, 02:57:04,VALID,1001.6,VALID,0,VALID,97.3903,VALID,0.100563,VALID,22.8295,VALID,4,VALID,0.345703,
2008-03-22, 02:58:04,VALID,1001.6,VALID,0,VALID,97.4361,VALID,0,VALID,22.8684,VALID,4,VALID,0.192188,
2008-03-22, 02:59:04,VALID,1001.6,VALID,0,VALID,97.4361,VALID,0,VALID,22.9073,VALID,4,VALID,0.201172,
2008-03-22, 03:00:04,VALID,1001.59,VALID,0,VALID,97.4132,VALID,0,VALID,22.9073,VALID,4,VALID,0.288672,
2008-03-22, 03:01:04,VALID,1001.61,VALID,0,VALID,97.4055,VALID,0,VALID,22.9073,VALID,4,VALID,0.322656,
2008-03-22, 03:02:04,VALID,1001.6,VALID,0,VALID,97.375,VALID,0.100563,VALID,22.8684,VALID,4,VALID,0.420703,
2008-03-22, 03:03:04,VALID,1001.57,VALID,0,VALID,97.3903,VALID,0,VALID,22.8684,VALID,4,VALID,0.507422,
2008-03-22, 03:04:04,VALID,1001.53,VALID,0,VALID,97.3827,VALID,0,VALID,22.8295,VALID,4,VALID,0.453125,
2008-03-22, 03:05:04,VALID,1001.58,VALID,0,VALID,97.3903,VALID,0.100563,VALID,22.8083,VALID,4,VALID,0.357031,
2008-03-22, 03:06:04,VALID,1001.54,VALID,0,VALID,97.3827,VALID,0.100563,VALID,22.7694,VALID,4,VALID,0.332812,
2008-03-22, 03:07:04,VALID,1001.51,VALID,0,VALID,97.4132,VALID,0.100563,VALID,22.81,VALID,4,VALID,0.319922,
2008-03-22, 03:08:04,VALID,1001.53,VALID,0,VALID,97.4284,VALID,0,VALID,22.81,VALID,4,VALID,0.274609,
2008-03-22, 03:09:04,VALID,1001.53,VALID,0,VALID,97.4055,VALID,0,VALID,22.8295,VALID,4,VALID,0.196875,
2008-03-22, 03:10:04,VALID,1001.54,VALID,0,VALID,97.4132,VALID,0,VALID,22.8295,VALID,4,VALID,0.065625,
2008-03-22, 03:11:04,VALID,1001.51,VALID,0,VALID,97.4132,VALID,0,VALID,22.8684,VALID,4,VALID,0.00117188,
2008-03-22, 03:12:04,VALID,1001.53,VALID,0,VALID,97.4132,VALID,0,VALID,22.8896,VALID,4,VALID,0.214844,
2008-03-22, 03:13:04,VALID,1001.55,VALID,0,VALID,97.4055,VALID,0,VALID,22.8701,VALID,4,VALID,0.307813,
2008-03-22, 03:14:04,VALID,1001.55,VALID,0,VALID,97.3827,VALID,0,VALID,22.8489,VALID,4,VALID,0.351172,
2008-03-22, 03:15:04,VALID,1001.56,VALID,0,VALID,97.4132,VALID,0,VALID,22.8701,VALID,4,VALID,0.328906,
2008-03-22, 03:16:04,VALID,1001.55,VALID,0,VALID,97.4055,VALID,0,VALID,22.8489,VALID,4,VALID,0.417188,
2008-03-22, 03:17:04,VALID,1001.55,VALID,0,VALID,97.4361,VALID,0,VALID,22.9091,VALID,4,VALID,0.510156,
2008-03-22, 03:18:04,VALID,1001.56,VALID,0,VALID,97.4437,VALID,0,VALID,22.9869,VALID,4,VALID,0.2875,
2008-03-22, 03:19:04,VALID,1001.54,VALID,0,VALID,97.4437,VALID,0,VALID,23.0648,VALID,4,VALID,0.410547,
2008-03-22, 03:20:04,VALID,1001.52,VALID,0,VALID,97.4361,VALID,0,VALID,23.1019,VALID,3,VALID,0.382031,
2008-03-22, 03:21:04,VALID,1001.52,VALID,0,VALID,97.4361,VALID,0,VALID,23.1603,VALID,360,VALID,0.394531,
2008-03-22, 03:22:04,VALID,1001.51,VALID,0,VALID,97.3827,VALID,0,VALID,23.1816,VALID,360,VALID,0.451562,
2008-03-22, 03:23:04,VALID,1001.49,VALID,0,VALID,97.3674,VALID,0,VALID,23.1426,VALID,360,VALID,0.439453,
2008-03-22, 03:24:04,VALID,1001.46,VALID,0,VALID,97.3674,VALID,0,VALID,23.0825,VALID,360,VALID,0.434766,
2008-03-22, 03:25:04,VALID,1001.44,VALID,0,VALID,97.3827,VALID,0,VALID,23.0842,VALID,360,VALID,0.419141,
2008-03-22, 03:26:04,VALID,1001.44,VALID,0,VALID,97.3979,VALID,0,VALID,23.0842,VALID,360,VALID,0.321094,
2008-03-22, 03:27:04,VALID,1001.46,VALID,0,VALID,97.4132,VALID,0,VALID,23.1232,VALID,360,VALID,0.275391,
2008-03-22, 03:28:04,VALID,1001.44,VALID,0,VALID,97.4055,VALID,0,VALID,23.1214,VALID,360,VALID,0.316797,
2008-03-22, 03:29:04,VALID,1001.44,VALID,0,VALID,97.3979,VALID,0,VALID,23.1214,VALID,1,VALID,0.303516,
2008-03-22, 03:30:04,VALID,1001.47,VALID,0,VALID,97.3903,VALID,0,VALID,23.1232,VALID,360,VALID,0.358984,
2008-03-22, 03:31:04,VALID,1001.46,VALID,0,VALID,97.375,VALID,0,VALID,23.0648,VALID,360,VALID,0.329688,
2008-03-22, 03:32:04,VALID,1001.46,VALID,0,VALID,97.3827,VALID,0,VALID,23.0436,VALID,360,VALID,0.276172,
2008-03-22, 03:33:04,VALID,1001.46,VALID,0,VALID,97.3827,VALID,0,VALID,23.0241,VALID,360,VALID,0.287891,
2008-03-22, 03:34:04,VALID,1001.47,VALID,0,VALID,97.375,VALID,0,VALID,23.0258,VALID,360,VALID,0.224609,
2008-03-22, 03:35:04,VALID,1001.48,VALID,0,VALID,97.3827,VALID,0,VALID,23.0046,VALID,360,VALID,0.21875,
2008-03-22, 03:36:04,VALID,1001.47,VALID,0,VALID,97.375,VALID,0,VALID,22.9869,VALID,360,VALID,0.128125,
2008-03-22, 03:37:04,VALID,1001.49,VALID,0,VALID,97.3827,VALID,0,VALID,22.9675,VALID,360,VALID,0.0796875,
2008-03-22, 03:38:04,VALID,1001.48,VALID,0,VALID,97.3979,VALID,0,VALID,23.0046,VALID,360,VALID,0,
2008-03-22, 03:39:04,VALID,1001.47,VALID,0,VALID,97.4055,VALID,0,VALID,23.0436,VALID,360,VALID,0.0839844,
2008-03-22, 03:40:04,VALID,1001.49,VALID,0,VALID,97.375,VALID,0,VALID,23.0648,VALID,360,VALID,0.318359,
2008-03-22, 03:41:04,VALID,1001.52,VALID,0,VALID,97.375,VALID,0,VALID,22.9852,VALID,360,VALID,0.310937,
2008-03-22, 03:42:04,VALID,1001.53,VALID,0,VALID,97.4208,VALID,0,VALID,23.0453,VALID,360,VALID,0.405859,
2008-03-22, 03:43:04,VALID,1001.54,VALID,0,VALID,97.4361,VALID,0,VALID,23.1232,VALID,360,VALID,0.269531,
2008-03-22, 03:44:04,VALID,1001.55,VALID,0,VALID,97.4284,VALID,0,VALID,23.1816,VALID,360,VALID,0.348828,
2008-03-22, 03:45:04,VALID,1001.57,VALID,0,VALID,97.3979,VALID,0,VALID,23.24,VALID,360,VALID,0.314453,
2008-03-22, 03:46:04,VALID,1001.58,VALID,0,VALID,97.4132,VALID,0,VALID,23.2577,VALID,360,VALID,0.267188,
2008-03-22, 03:47:04,VALID,1001.56,VALID,0,VALID,97.3598,VALID,0,VALID,23.2594,VALID,360,VALID,0.257422,
2008-03-22, 03:48:04,VALID,1001.62,VALID,0,VALID,97.3598,VALID,0,VALID,23.2205,VALID,360,VALID,0.409375,
2008-03-22, 03:49:04,VALID,1001.58,VALID,0,VALID,97.3521,VALID,0,VALID,23.201,VALID,360,VALID,0.392188,
2008-03-22, 03:50:04,VALID,1001.6,VALID,0,VALID,97.3674,VALID,0,VALID,23.1621,VALID,360,VALID,0.313672,